7 * 24
多渠道服务支持
STARLINK-3792是由美国于2022年4月29日发射的星链系列卫星,归属SpaceX星链互联网星座项目。星链计划旨在构建全球卫星互联网络,该卫星承担低轨宽带信号中继任务,服务全球偏远地区及民用通信场景,是星链星座扩容、提升覆盖能力的重要组成单元,运行于近地轨道。
美国
(US)
| 数据来源 | 国际轨道数据 |
| 星历时间: | 2026-09-11T02:00:02+0800 9小时前 查看轨道信息 |
| 半长轴: | 6871.777km |
| 偏心率: | 0.0001196 |
| 轨道倾角: | 53.159° |
| 近地点辐角 | 54.545° |
| 升交点赤经 | 96.793° |
| 平近点角 | 346.807° |
| 近地点: | 492.818km |
| 远地点: | 494.462km |
| 周期: | 94.485分钟 |
| 每日圈数: | 15.240501 |
| 事件ID | 空间交会对象 | 最接近时刻(TCA) | 交会距离 | 交会风险概率(CRP) | 交会风险指数(CRI) | 操作 |
|---|---|---|---|---|---|---|
| CDM_260906-163005-233905-875921 |
STARLINK-3792
(52339)
YUNYAO-1 19
(58759) | 2026-09-06T 16:30:14+0000 |
2.887 km
极远距离 | 4.22972E-7 极低风险 | 0.28 |